Wind_Speed
13 13 13 13 11 10 9 9 9 8 6 5 6 8 8 10 11 11 11 12 12 13 12 11 10 9 8 7 7 6 6 6 6 6 6 6 6 7 7 6 6 6 6
13 13 13 13 12 10 10 10 9 9 7 6 5 7 8 9 10 11 12 12 13 14 13 12 11 10 9 8 8 8 8 7 7 7 7 8 8 8 8 8 8 8 8
12 13 13 13 12 11 10 9 9 9 7 7 5 6 7 8 10 11 13 13 13 14 15 13 12 11 11 10 9 9 9 9 9 9 9 9 9 9 10 10 10 9 9
12 12 13 13 13 11 10 9 9 8 7 7 5 5 5 8 10 12 13 14 14 15 15 14 13 12 12 11 11 11 11 11 11 10 11 11 11 11 11 12 11 11 11
11 12 13 13 12 11 11 10 9 9 8 7 6 6 7 8 10 11 12 14 14 15 15 15 14 13 13 12 12 12 12 13 12 12 12 12 13 13 14 14 13 13 13
11 12 13 13 12 12 11 10 10 10 9 7 7 7 7 8 10 10 12 13 14 15 15 15 15 15 14 14 13 13 13 14 14 14 14 14 14 15 16 16 15 15 16
12 12 12 12 13 12 11 11 10 9 8 7 7 7 8 8 10 10 11 12 14 16 16 16 15 15 15 15 14 14 14 15 15 15 15 15 16 16 17 17 17 18 18
11 12 12 12 12 12 11 11 10 9 8 7 7 8 9 9 9 10 10 12 13 15 16 16 15 15 15 15 15 15 16 16 16 16 16 17 17 18 19 19 19 19 20
12 12 12 12 13 12 11 10 10 10 9 8 8 8 8 9 9 10 10 12 13 14 14 14 14 15 15 16 16 16 16 17 17 18 18 18 19 19 20 20 21 21 22
12 11 12 12 12 12 11 10 10 10 10 9 8 7 8 8 9 10 10 11 12 13 14 13 13 14 15 15 16 16 17 18 18 19 20 20 21 21 21 22 22 22 23
11 12 12 12 12 12 11 11 10 10 10 9 8 9 8 8 9 9 10 10 11 12 14 13 13 14 14 15 16 17 17 18 19 19 20 21 22 22 22 23 23 24 24
12 12 12 12 12 12 11 11 10 10 9 9 8 8 8 9 9 9 9 10 11 12 13 13 14 14 15 16 17 18 19 19 19 20 20 22 22 23 23 23 24 25 26
12 12 12 12 12 12 12 11 10 10 9 9 9 8 8 9 9 10 10 10 11 12 14 15 15 15 16 16 18 19 19 19 20 21 21 22 22 23 24 25 26 27 27
11 12 12 12 12 13 12 12 11 10 10 10 10 9 10 10 10 10 11 12 12 13 15 16 16 17 17 18 19 20 20 20 21 21 22 23 24 24 25 26 27 28 28
12 12 13 13 13 13 13 12 12 12 11 10 10 10 10 11 11 12 12 13 14 15 16 16 17 18 19 19 20 20 21 22 23 23 24 25 26 27 28 28 29 29 30
14 14 14 14 14 14 14 14 14 13 12 12 12 12 11 11 12 12 13 14 15 16 16 17 18 19 20 21 21 22 22 23 24 24 25 26 28 29 30 30 30 31 31
16 16 17 16 17 17 16 15 15 14 14 13 13 13 14 14 14 15 15 16 17 17 17 18 19 19 20 21 22 23 23 24 24 25 27 27 28 30 30 30 30 30 30
18 19 19 18 18 19 19 18 17 16 15 15 15 15 16 16 16 17 18 18 18 18 19 19 19 20 21 22 22 23 24 24 25 26 27 28 28 28 29 29 29 29 30
20 20 20 20 20 20 20 19 19 18 17 17 17 17 17 17 18 18 19 19 20 20 20 20 21 21 22 23 23 23 24 24 25 26 27 27 28 28 28 28 28 29 30
23 22 22 23 23 22 22 22 21 21 20 20 19 19 19 18 19 19 20 20 21 22 22 22 23 23 23 24 25 25 25 26 26 27 28 28 29 29 29 29 29 29 29
25 25 25 25 25 25 25 24 24 24 23 22 21 21 21 21 21 21 21 21 22 23 23 23 24 24 24 25 26 26 27 27 28 29 29 30 29 29 29 29 30 30 30
28 28 28 28 27 27 28 27 27 26 26 24 23 23 24 23 23 23 23 23 23 24 24 25 25 25 25 26 27 27 28 28 29 29 30 30 31 31 31 31 31 32 32
30 30 30 30 30 30 30 30 28 29 28 27 26 26 26 26 25 25 24 24 25 25 26 27 27 27 27 28 28 29 28 29 30 30 30 31 31 31 31 31 32 32 32
32 32 32 32 32 33 33 32 31 31 31 30 29 29 29 28 27 27 27 26 27 27 28 28 29 29 29 30 30 31 31 31 31 32 32 32 31 31 31 32 32 32 32
33 33 33 33 33 33 34 35 34 33 33 32 31 31 31 30 30 29 28 28 29 29 30 31 31 31 31 32 33 33 33 33 33 33 33 33 32 32 32 32 33 32 32
34 34 35 34 34 34 34 35 34 33 33 32 31 31 31 31 31 31 31 30 31 32 32 33 34 33 33 34 34 34 34 34 34 34 34 33 33 33 33 33 33 33 33
Wind_Direction
339 341 343 341 338 338 330 323 320 315 301 276 244 231 225 222 221 219 220 223 222 219 220 219 217 219 217 216 221 226 227 227 228 232 236 238 243 242 241 247 255 262 267
336 339 342 343 340 337 334 328 319 314 303 293 262 240 232 225 224 222 221 222 221 220 221 221 220 223 226 226 229 232 232 234 237 242 247 246 248 247 249 253 258 264 270
333 335 338 340 341 336 332 325 320 315 303 294 271 247 235 233 228 223 220 221 222 222 221 222 223 226 232 233 236 238 240 241 243 247 252 254 254 252 255 259 263 266 270
331 335 339 338 335 334 333 326 320 317 305 295 273 250 240 231 231 227 226 227 225 224 221 221 225 230 236 240 244 247 247 247 249 252 255 256 256 257 258 261 264 267 270
328 333 335 335 334 332 331 328 323 316 303 292 281 264 246 240 239 236 231 231 228 226 222 226 231 236 242 247 249 250 251 251 253 256 258 259 258 259 259 261 262 265 269
322 329 332 334 335 332 329 328 321 315 303 285 280 270 253 245 242 239 232 233 230 228 227 231 236 241 247 249 249 252 254 254 256 258 259 260 260 262 262 263 265 267 268
320 322 327 333 336 333 329 328 324 318 306 285 275 266 257 251 249 243 236 234 233 231 232 235 240 244 247 248 250 253 256 258 260 260 261 261 262 264 264 265 266 268 269
315 320 323 329 333 333 328 327 323 320 315 295 276 272 264 257 253 249 244 239 236 234 234 237 242 246 249 252 255 255 258 261 262 262 263 264 265 266 266 266 267 269 270
310 317 322 325 328 329 325 322 322 317 314 307 291 278 262 257 257 252 249 242 239 235 235 242 247 252 253 255 256 258 261 262 262 263 265 266 266 267 269 269 269 270 271
306 315 320 323 326 326 323 319 318 318 313 305 296 282 267 262 261 260 258 251 242 237 240 245 249 254 256 259 259 261 262 262 264 265 265 266 267 268 270 270 271 271 272
301 311 318 320 322 324 321 319 315 314 312 306 294 281 272 268 265 261 258 251 245 238 240 247 252 257 264 267 265 265 264 265 266 267 268 268 268 269 270 271 271 273 273
300 306 312 318 322 322 321 318 317 312 309 305 297 284 275 272 268 261 259 256 253 248 248 250 254 260 264 268 266 266 266 266 266 267 269 270 270 270 271 273 273 274 276
298 304 307 311 318 322 321 317 315 313 306 300 297 288 282 277 270 265 264 261 256 254 255 256 256 260 264 268 269 268 268 269 269 270 271 271 272 272 273 274 275 276 278
295 303 306 307 312 316 317 316 312 309 305 300 296 292 283 277 273 272 270 265 261 259 260 261 260 264 266 269 271 270 270 271 272 273 273 273 275 276 277 277 278 278 279
289 298 300 299 305 310 313 313 310 304 300 297 295 290 289 279 276 275 274 272 268 264 263 265 265 268 270 272 273 273 273 272 273 273 275 275 276 278 278 279 280 279 278
284 293 297 296 300 303 306 307 308 302 296 293 291 290 289 283 279 275 275 274 275 272 269 268 269 271 273 274 275 275 276 274 273 275 277 279 279 278 278 279 279 280 280
283 288 290 291 296 298 300 301 303 299 294 291 289 289 287 284 281 277 274 274 275 276 274 273 272 272 273 275 275 275 277 275 276 278 280 281 282 282 281 280 279 279 280
282 286 287 288 292 296 298 296 297 298 294 291 289 292 291 285 283 281 277 274 274 276 276 276 276 275 276 277 277 277 276 278 278 279 280 281 284 284 284 284 283 283 283
277 282 283 285 288 291 294 295 294 295 295 293 291 292 291 288 285 283 282 277 275 276 277 277 279 279 279 279 278 278 278 279 280 281 281 282 283 285 285 284 285 285 284
272 276 278 280 284 287 289 289 290 292 293 291 291 291 292 290 289 286 283 281 278 276 276 278 280 280 280 280 280 280 280 279 280 281 281 281 283 283 284 285 284 284 284
270 274 275 277 280 282 284 285 286 287 290 290 291 291 292 290 289 287 284 283 281 278 276 278 280 281 281 281 281 281 281 281 280 281 282 281 282 284 284 285 284 284 285
270 272 274 275 277 279 280 282 282 282 284 287 288 289 289 288 288 287 284 282 282 280 278 278 279 281 282 283 283 283 282 282 282 283 282 282 282 282 283 283 284 285 286
269 270 271 273 274 275 276 281 281 281 282 283 284 286 289 288 287 286 284 283 282 282 280 279 279 281 282 283 283 283 282 283 284 284 284 284 283 281 282 283 285 286 286
269 269 270 272 273 272 272 276 278 278 279 280 279 281 284 285 285 285 284 283 282 281 280 279 280 281 281 281 282 282 282 283 283 284 284 284 284 282 282 283 284 285 286
269 269 270 271 272 273 274 275 277 278 279 278 277 277 279 281 282 282 282 283 282 283 282 281 281 281 280 280 280 281 282 282 282 283 284 283 282 281 281 282 283 284 284
267 268 269 270 271 273 275 277 276 277 277 276 276 275 276 278 280 280 280 281 282 282 281 281 280 279 280 281 280 280 281 282 281 282 282 282 280 280 281 281 282 282 283
Height
5914 5912 5909 5906 5904 5903 5901 5899 5898 5896 5895 5894 5894 5894 5895 5896 5898 5899 5901 5902 5904 5906 5908 5909 5911 5912 5913 5913 5914 5914 5915 5915 5916 5916 5917 5917 5917 5917 5917 5917 5917 5917 5917
5914 5912 5909 5906 5904 5902 5900 5898 5896 5895 5894 5894 5893 5893 5894 5895 5896 5897 5899 5900 5902 5904 5906 5908 5909 5910 5911 5912 5913 5913 5913 5914 5914 5915 5915 5916 5917 5916 5916 5916 5916 5916 5916
5914 5911 5909 5906 5904 5901 5899 5897 5896 5895 5893 5892 5892 5892 5892 5893 5894 5895 5897 5898 5900 5902 5903 5905 5907 5909 5910 5910 5911 5912 5912 5913 5913 5914 5914 5915 5915 5915 5915 5915 5915 5915 5915
5913 5911 5908 5906 5903 5901 5899 5897 5895 5894 5892 5891 5891 5890 5891 5891 5892 5893 5895 5896 5897 5899 5901 5903 5905 5907 5908 5909 5909 5910 5910 5911 5911 5912 5912 5913 5913 5913 5913 5913 5913 5913 5912
5912 5910 5908 5905 5902 5900 5898 5896 5894 5893 5891 5890 5890 5889 5889 5889 5890 5891 5893 5894 5895 5897 5898 5900 5903 5904 5905 5906 5907 5907 5908 5908 5909 5909 5910 5910 5910 5910 5911 5911 5911 5910 5910
5911 5909 5907 5904 5901 5899 5897 5895 5893 5892 5890 5889 5888 5888 5887 5888 5888 5889 5890 5891 5893 5894 5896 5898 5900 5901 5903 5904 5904 5905 5905 5906 5906 5906 5907 5907 5907 5907 5907 5907 5907 5907 5907
5910 5908 5905 5903 5900 5897 5895 5894 5892 5890 5888 5887 5887 5887 5886 5886 5886 5887 5888 5889 5890 5892 5893 5895 5897 5898 5899 5901 5901 5902 5902 5903 5903 5903 5904 5904 5904 5904 5904 5904 5904 5904 5903
5908 5906 5904 5902 5899 5897 5894 5892 5891 5889 5887 5886 5886 5885 5884 5884 5884 5885 5886 5887 5888 5889 5891 5892 5894 5895 5896 5897 5898 5898 5899 5899 5899 5900 5900 5900 5900 5900 5900 5900 5900 5899 5899
5906 5905 5902 5900 5898 5895 5893 5891 5890 5888 5886 5884 5883 5882 5882 5882 5882 5883 5883 5884 5885 5886 5888 5889 5891 5892 5893 5894 5895 5895 5895 5896 5896 5896 5896 5896 5896 5896 5896 5896 5895 5895 5894
5905 5903 5901 5899 5896 5894 5892 5890 5888 5886 5884 5883 5881 5881 5880 5880 5880 5881 5881 5882 5882 5884 5886 5887 5888 5889 5890 5890 5891 5891 5891 5892 5892 5892 5892 5892 5892 5892 5891 5891 5890 5890 5889
5903 5901 5899 5897 5895 5893 5890 5889 5887 5885 5883 5882 5880 5879 5879 5879 5879 5879 5879 5879 5880 5881 5883 5884 5885 5886 5886 5886 5887 5887 5887 5887 5887 5887 5887 5887 5887 5886 5886 5886 5885 5885 5884
5900 5899 5897 5895 5893 5891 5889 5887 5885 5884 5882 5880 5879 5878 5877 5877 5877 5877 5877 5877 5878 5879 5880 5881 5882 5882 5883 5883 5883 5883 5883 5883 5883 5882 5882 5882 5881 5881 5881 5880 5880 5879 5878
5898 5897 5895 5893 5891 5889 5887 5885 5884 5882 5880 5879 5877 5876 5876 5875 5875 5875 5875 5875 5876 5876 5877 5878 5878 5878 5879 5879 5878 5878 5878 5878 5877 5877 5877 5876 5876 5875 5875 5874 5873 5872 5871
5895 5894 5892 5891 5889 5887 5885 5883 5882 5880 5879 5877 5876 5874 5873 5873 5873 5873 5872 5873 5873 5873 5873 5874 5874 5874 5874 5874 5873 5873 5873 5872 5872 5872 5871 5870 5870 5869 5868 5867 5867 5866 5864
5892 5891 5890 5888 5886 5885 5883 5881 5880 5878 5876 5875 5874 5872 5871 5870 5870 5870 5870 5870 5870 5870 5870 5869 5869 5869 5869 5869 5868 5868 5867 5867 5866 5866 5865 5864 5864 5863 5862 5861 5860 5858 5857
5888 5887 5886 5885 5884 5882 5880 5879 5877 5875 5874 5873 5872 5870 5869 5868 5867 5867 5867 5867 5866 5866 5865 5865 5865 5864 5864 5864 5863 5863 5862 5861 5861 5860 5859 5858 5857 5856 5855 5854 5852 5851 5850
5884 5883 5882 5881 5880 5879 5877 5876 5874 5873 5871 5870 5869 5868 5867 5866 5865 5864 5863 5863 5862 5862 5861 5860 5860 5859 5859 5858 5857 5857 5856 5855 5855 5854 5852 5851 5850 5849 5847 5846 5845 5843 5842
5880 5879 5878 5877 5876 5875 5873 5872 5871 5869 5868 5867 5866 5864 5863 5862 5861 5860 5859 5859 5858 5857 5856 5855 5855 5854 5853 5852 5852 5851 5850 5849 5848 5847 5846 5845 5843 5841 5840 5839 5837 5836 5835
5874 5874 5873 5872 5871 5870 5869 5868 5867 5865 5864 5863 5862 5860 5859 5858 5856 5855 5854 5854 5853 5852 5851 5850 5849 5848 5847 5847 5846 5845 5844 5843 5841 5840 5839 5837 5835 5834 5833 5831 5830 5829 5827
5868 5868 5868 5867 5866 5865 5864 5863 5862 5861 5860 5858 5857 5855 5854 5852 5851 5850 5849 5848 5847 5846 5845 5845 5844 5843 5841 5840 5839 5838 5837 5836 5834 5833 5831 5829 5828 5827 5825 5824 5822 5821 5819
5862 5862 5861 5861 5860 5859 5859 5858 5857 5855 5854 5852 5852 5850 5849 5847 5846 5845 5843 5842 5841 5840 5839 5838 5837 5836 5835 5834 5832 5831 5830 5828 5827 5826 5824 5822 5821 5819 5818 5816 5814 5813 5811
5854 5854 5854 5854 5854 5853 5852 5851 5850 5849 5848 5847 5846 5845 5843 5842 5840 5838 5837 5836 5834 5833 5832 5831 5830 5829 5828 5826 5825 5823 5822 5820 5819 5817 5815 5814 5812 5811 5809 5808 5806 5804 5803
5846 5846 5846 5846 5846 5845 5844 5844 5843 5842 5841 5840 5839 5838 5837 5835 5834 5832 5830 5829 5827 5826 5825 5824 5823 5822 5820 5819 5817 5815 5814 5812 5811 5809 5807 5805 5803 5802 5800 5799 5797 5796 5794
5837 5837 5837 5837 5837 5837 5836 5835 5835 5833 5833 5832 5831 5830 5829 5828 5826 5825 5823 5822 5820 5819 5817 5816 5815 5814 5812 5811 5809 5807 5805 5804 5802 5800 5798 5796 5794 5793 5792 5790 5788 5787 5785
5828 5828 5828 5828 5828 5828 5827 5826 5825 5825 5824 5823 5822 5822 5821 5820 5818 5817 5815 5814 5813 5811 5810 5808 5807 5805 5803 5801 5800 5798 5797 5795 5793 5791 5789 5787 5786 5784 5782 5781 5779 5777 5776
5818 5819 5819 5819 5819 5819 5818 5817 5816 5816 5815 5814 5813 5812 5812 5811 5810 5808 5807 5805 5804 5802 5801 5799 5798 5796 5794 5792 5790 5789 5787 5785 5783 5782 5780 5778 5776 5775 5773 5772 5770 5768 5766